Flag for Brazil Weather past 2 weeks in Sorocaba, São Paulo, Brazil

Now
70 °F

Passing clouds.


Feels Like: 70 °F
Forecast: 64 / 76 °F
Wind: 5 mph from Southwest

Location: Campinas Aeroporto


UV Index: 5 (Moderate)

Visibility: 4 mi


Pressure: 30.09 "Hg

Humidity: 78%

Dew point: 63 °F

Location of SorocabaLocation

Historic Weather in Sorocaba

°F

Sorocaba temperature yesterday

Maximum temperature yesterday: 73 °F (at 5:00 PM)
Minimum temperature yesterday: 64 °F (at 4:00 AM)
Average temperature yesterday: 68 °F

Past Weeks' High & Low Weather Summary

 TemperatureHumidityPressure
High90 °F (Apr 8, 3:00 PM)100% (Apr 12, 9:00 PM)30.15 "Hg (Apr 12, 9:00 PM)
Low63 °F (Apr 15, 8:00 AM)26% (Apr 8, 4:00 PM)29.86 "Hg (Apr 9, 4:00 PM)
Average73 °F73%30.04 "Hg
* Reported Apr 8 11:00 AM — Apr 23 11:00 AM, Sorocaba, Weather by CustomWeather, © 2014

Note: Actual official high and low records may vary slightly from our data, if they occured in-between our weather recording intervals... More about our weather records

Advertising

Historic Weather Conditions — Data for Previous 24 hours

 ConditionsComfort  
Time TempWeatherWind HumidityBarometerVisibility
11:00 AM
Apr 23
68 °FFog.No wind88%30.12 "Hg3 mi
10:00 AM66 °FFog.2 mph88%30.12 "Hg2 mi
9:00 AM64 °FFog.5 mph94%30.09 "Hg2 mi
8:00 AM64 °FFog.6 mph94%30.09 "Hg3 mi
7:00 AM63 °FClear.3 mph94%30.07 "Hg5 mi
6:00 AM64 °FSunny.6 mph88%30.04 "Hg10 mi
5:00 AM64 °FClear.7 mph88%30.01 "Hg10 mi
4:00 AM64 °FClear.6 mph88%30.01 "Hg10 mi
3:00 AM64 °FClear.5 mph88%30.01 "Hg10 mi
2:00 AM64 °FClear.6 mph88%30.04 "Hg10 mi
1:00 AM64 °FClear.5 mph88%30.04 "Hg10 mi
12:00 AM66 °FClear.5 mph83%30.04 "Hg10 mi
11:00 PM
Apr 22
66 °FClear.6 mph88%30.07 "Hg10 mi
10:00 PM68 °FClear.8 mph78%30.04 "Hg10 mi
9:00 PM68 °FClear.7 mph78%30.04 "Hg10 mi
8:00 PM68 °FClear.9 mph83%30.01 "Hg10 mi
7:00 PM70 °FClear.10 mph78%30.01 "Hg10 mi
6:00 PM70 °FClear.10 mph78%30.01 "Hg10 mi
5:00 PM73 °FPassing clouds.5 mph69%29.98 "HgN/A
4:00 PM72 °FScattered clouds.6 mph73%29.98 "HgN/A
3:00 PM70 °FPartly sunny.6 mph78%29.98 "HgN/A
2:00 PM68 °FLight rain. Scattered clouds.10 mph83%30.01 "HgN/A
1:00 PM68 °FScattered clouds.5 mph83%30.09 "HgN/A
12:00 PM68 °FPartly sunny.12 mph83%30.12 "HgN/A
Weather by CustomWeather, © 2014

See weather overview